Location: Ashtead
(51.3000°N, 0.3000°W)
Time: 09:54:48
(UTC+00:00)

Cosmos 1417 Rocket - Pass Details

Date: 26 September 2023
Orbit: 951 x 998 km, 83.0° (Epoch: 09 December)

Event Time Altitude Azimuth Distance (km) Brightness Sun altitude
Rises 03:00:18 0° 350° (N) 3,696 7.9 -26.3°
Reaches altitude 10° 03:02:50 10° 352° (N) 2,737 7.1 -25.9°
Maximum altitude 03:09:07 80° 79° (E) 987 4.5 -25.1°
Enters shadow 03:15:16 10° 167° (SSE) 2,676 6.6 -24.3°
